TimeCST,TemperatureF,Dew PointF,Humidity,Sea Level PressureIn,VisibilityMPH,Wind Direction,Wind SpeedMPH,Gust SpeedMPH,PrecipitationIn,Events,Conditions,WindDirDegrees,DateUTC
12:02 AM,21.2,21.2,100,30.06,9.0,Calm,Calm,-,N/A,,Clear,0,2013-02-24 06:02:00
12:17 AM,21.2,19.4,93,30.06,6.0,Calm,Calm,-,N/A,,Clear,0,2013-02-24 06:17:00
12:55 AM,21.0,20.7,99,30.05,9.0,Calm,Calm,-,N/A,,Clear,0,2013-02-24 06:55:00
1:10 AM,21.2,19.4,93,30.06,7.0,Calm,Calm,-,N/A,,Clear,0,2013-02-24 07:10:00
1:55 AM,19.9,19.4,98,30.08,6.0,Calm,Calm,-,N/A,,Clear,0,2013-02-24 07:55:00
2:30 AM,19.4,19.4,100,30.07,8.0,Calm,Calm,-,N/A,,Clear,0,2013-02-24 08:30:00
2:41 AM,19.4,19.4,100,30.07,6.0,Calm,Calm,-,N/A,,Clear,0,2013-02-24 08:41:00
2:55 AM,18.7,18.1,98,30.08,5.0,Calm,Calm,-,N/A,,Clear,0,2013-02-24 08:55:00
3:55 AM,18.9,18.3,98,30.07,8.0,Calm,Calm,-,N/A,,Clear,0,2013-02-24 09:55:00
4:55 AM,18.0,17.4,98,30.08,7.0,Calm,Calm,-,N/A,,Clear,0,2013-02-24 10:55:00
5:55 AM,17.2,16.7,98,30.11,7.0,Calm,Calm,-,N/A,,Clear,0,2013-02-24 11:55:00
6:20 AM,17.6,17.6,100,30.12,8.0,Calm,Calm,-,N/A,,Clear,0,2013-02-24 12:20:00
6:55 AM,17.1,16.5,98,30.13,7.0,Calm,Calm,-,N/A,,Clear,0,2013-02-24 12:55:00
7:55 AM,21.6,21.0,98,30.14,6.0,Calm,Calm,-,N/A,,Clear,0,2013-02-24 13:55:00
8:55 AM,29.8,26.4,87,30.15,7.0,East,3.5,-,N/A,,Clear,90,2013-02-24 14:55:00
9:55 AM,33.8,24.4,69,30.16,10.0,East,4.6,-,N/A,,Clear,100,2013-02-24 15:55:00
10:55 AM,36.9,25.2,63,30.16,10.0,SE,5.8,-,N/A,,Clear,130,2013-02-24 16:55:00
11:55 AM,39.6,25.2,56,30.16,10.0,SE,6.9,-,N/A,,Clear,130,2013-02-24 17:55:00
12:55 PM,40.8,23.7,51,30.14,10.0,ESE,4.6,-,N/A,,Clear,110,2013-02-24 18:55:00
1:55 PM,41.9,25.7,53,30.12,10.0,ESE,6.9,-,N/A,,Clear,120,2013-02-24 19:55:00
2:55 PM,42.6,24.8,49,30.11,10.0,ESE,8.1,-,N/A,,Clear,110,2013-02-24 20:55:00
3:55 PM,42.6,25.5,51,30.09,10.0,ESE,6.9,-,N/A,,Clear,110,2013-02-24 21:55:00
4:55 PM,41.9,26.4,54,30.09,10.0,ESE,5.8,-,N/A,,Clear,110,2013-02-24 22:55:00
5:55 PM,39.7,27.0,60,30.09,10.0,East,5.8,-,N/A,,Clear,90,2013-02-24 23:55:00
6:55 PM,36.7,27.5,69,30.10,10.0,ENE,5.8,-,N/A,,Clear,70,2013-02-25 00:55:00
7:55 PM,35.6,26.8,70,30.10,10.0,Calm,Calm,-,N/A,,Clear,0,2013-02-25 01:55:00
8:55 PM,33.4,27.1,78,30.08,10.0,East,5.8,-,N/A,,Clear,90,2013-02-25 02:55:00
9:55 PM,33.8,27.3,77,30.08,10.0,East,6.9,-,N/A,,Clear,100,2013-02-25 03:55:00
10:55 PM,31.6,27.1,83,30.07,10.0,East,3.5,-,N/A,,Partly Cloudy,80,2013-02-25 04:55:00
11:55 PM,31.1,27.5,87,30.06,10.0,ENE,3.5,-,N/A,,Partly Cloudy,60,2013-02-25 05:55:00